Location: Goudex
(43.3760°N, 0.9543°E)
Time: 07:21:11
(UTC+00:00)

Cosmos 2228 Rocket - Pass Details

Date: 20 November 2019
Orbit: 619 x 651 km, 82.5° (Epoch: 13 December)

Event Time Altitude Azimuth Distance (km) Brightness Sun altitude
Rises 05:08:35 0° 356° (N) 2,982 6.4 -19.2°
Reaches altitude 10° 05:10:54 10° 1° (N) 2,067 5.7 -18.8°
Maximum altitude 05:15:24 52° 78° (ENE) 817 4.0 -18.0°
Drops below altitude 10° 05:19:50 10° 155° (SSE) 2,048 6.2 -17.2°
Sets 05:22:08 0° 160° (SSE) 2,951 7.0 -16.8°
